,,PressureMeas_1m,,PRMeasQMR101_1,,RHStat155_1m_1,,SRMeasQMS101R_1m,,TAStat155_1m_1,,GenWind_1,,GenWind_1,
2017-06-05, 07:00:06,VALID,918.3,VALID,0.0,VALID,95.832,VALID,128.558,VALID,19.854,VALID,167.0,VALID,0.0,
2017-06-05, 07:01:06,VALID,918.285,VALID,0.0,VALID,94.596,VALID,133.046,VALID,20.023,VALID,167.0,VALID,0.0,
2017-06-05, 07:02:06,VALID,918.246,VALID,0.0,VALID,94.051,VALID,136.223,VALID,20.224,VALID,167.0,VALID,0.0,
2017-06-05, 07:03:06,VALID,918.241,VALID,0.0,VALID,93.494,VALID,138.347,VALID,20.426,VALID,167.0,VALID,0.0,
2017-06-05, 07:04:06,VALID,918.231,VALID,0.0,VALID,93.542,VALID,139.188,VALID,20.676,VALID,167.0,VALID,0.0,
2017-06-05, 07:05:06,VALID,918.247,VALID,0.0,VALID,92.313,VALID,137.824,VALID,20.871,VALID,167.0,VALID,0.0,
2017-06-05, 07:06:06,VALID,918.264,VALID,0.0,VALID,90.669,VALID,139.102,VALID,21.017,VALID,178.0,VALID,0.0,
2017-06-05, 07:07:06,VALID,918.271,VALID,0.0,VALID,90.008,VALID,140.181,VALID,21.13,VALID,187.0,VALID,0.0,
2017-06-05, 07:08:06,VALID,918.26,VALID,0.0,VALID,89.976,VALID,144.202,VALID,21.262,VALID,187.0,VALID,0.0,
2017-06-05, 07:09:06,VALID,918.233,VALID,0.0,VALID,89.718,VALID,145.275,VALID,21.447,VALID,183.0,VALID,0.0,
2017-06-05, 07:10:06,VALID,918.215,VALID,0.0,VALID,89.138,VALID,141.525,VALID,21.647,VALID,90.0,VALID,0.0,
2017-06-05, 07:11:06,VALID,918.203,VALID,0.0,VALID,87.843,VALID,137.266,VALID,21.837,VALID,78.0,VALID,0.0,
2017-06-05, 07:12:06,VALID,918.21,VALID,0.0,VALID,86.21,VALID,135.812,VALID,21.967,VALID,75.0,VALID,0.0,
2017-06-05, 07:13:06,VALID,918.219,VALID,0.0,VALID,86.241,VALID,144.365,VALID,21.944,VALID,63.0,VALID,0.0,
2017-06-05, 07:14:06,VALID,918.249,VALID,0.0,VALID,87.274,VALID,152.517,VALID,21.896,VALID,56.0,VALID,0.0,
2017-06-05, 07:15:06,VALID,918.262,VALID,0.0,VALID,87.642,VALID,151.604,VALID,21.883,VALID,51.0,VALID,0.0,
2017-06-05, 07:16:06,VALID,918.264,VALID,0.0,VALID,87.465,VALID,154.936,VALID,21.969,VALID,50.0,VALID,0.0,
2017-06-05, 07:17:06,VALID,918.265,VALID,0.0,VALID,86.78,VALID,150.655,VALID,22.094,VALID,50.0,VALID,0.0,
2017-06-05, 07:18:06,VALID,918.27,VALID,0.0,VALID,86.531,VALID,152.18,VALID,22.277,VALID,50.0,VALID,0.0,
2017-06-05, 07:19:06,VALID,918.281,VALID,0.0,VALID,85.841,VALID,154.051,VALID,22.429,VALID,50.0,VALID,0.0,
2017-06-05, 07:20:06,VALID,918.306,VALID,0.0,VALID,85.653,VALID,153.395,VALID,22.474,VALID,50.0,VALID,0.0,
2017-06-05, 07:21:06,VALID,918.317,VALID,0.0,VALID,85.587,VALID,147.038,VALID,22.494,VALID,50.0,VALID,0.0,
2017-06-05, 07:22:06,VALID,918.329,VALID,0.0,VALID,85.469,VALID,140.821,VALID,22.475,VALID,50.0,VALID,0.0,
2017-06-05, 07:23:06,VALID,918.345,VALID,0.0,VALID,85.851,VALID,136.522,VALID,22.578,VALID,33.0,VALID,0.211,
2017-06-05, 07:24:06,VALID,918.358,VALID,0.0,VALID,84.446,VALID,140.592,VALID,22.551,VALID,13.0,VALID,0.686,
2017-06-05, 07:25:06,VALID,918.395,VALID,0.0,VALID,86.276,VALID,151.833,VALID,22.321,VALID,18.0,VALID,0.758,
2017-06-05, 07:26:06,VALID,918.424,VALID,0.0,VALID,87.037,VALID,154.515,VALID,22.062,VALID,22.0,VALID,0.908,
2017-06-05, 07:27:06,VALID,918.437,VALID,0.0,VALID,87.899,VALID,158.215,VALID,21.874,VALID,18.0,VALID,0.848,
2017-06-05, 07:28:06,VALID,918.447,VALID,0.0,VALID,89.5,VALID,170.664,VALID,21.761,VALID,11.0,VALID,0.732,
2017-06-05, 07:29:06,VALID,918.456,VALID,0.0,VALID,90.208,VALID,168.443,VALID,21.695,VALID,3.0,VALID,0.637,
2017-06-05, 07:30:06,VALID,918.461,VALID,0.0,VALID,90.301,VALID,145.895,VALID,21.663,VALID,14.0,VALID,0.725,
2017-06-05, 07:31:06,VALID,918.464,VALID,0.0,VALID,90.263,VALID,128.827,VALID,21.604,VALID,15.0,VALID,0.9,
2017-06-05, 07:32:06,VALID,918.446,VALID,0.0,VALID,89.613,VALID,130.994,VALID,21.49,VALID,12.0,VALID,1.071,
2017-06-05, 07:33:06,VALID,918.446,VALID,0.0,VALID,90.666,VALID,148.969,VALID,21.416,VALID,12.0,VALID,0.445,
2017-06-05, 07:34:06,VALID,918.464,VALID,0.0,VALID,90.96,VALID,162.878,VALID,21.533,VALID,19.0,VALID,0.28,
2017-06-05, 07:35:06,VALID,918.484,VALID,0.0,VALID,90.03,VALID,163.792,VALID,21.681,VALID,357.0,VALID,0.241,
2017-06-05, 07:36:06,VALID,918.525,VALID,0.0,VALID,89.374,VALID,176.607,VALID,21.796,VALID,342.0,VALID,0.319,
2017-06-05, 07:37:06,VALID,918.548,VALID,0.0,VALID,88.898,VALID,202.062,VALID,21.883,VALID,347.0,VALID,0.446,
2017-06-05, 07:38:06,VALID,918.543,VALID,0.0,VALID,88.337,VALID,226.127,VALID,21.937,VALID,15.0,VALID,0.443,
2017-06-05, 07:39:06,VALID,918.509,VALID,0.0,VALID,88.301,VALID,238.401,VALID,22.049,VALID,32.0,VALID,0.712,
2017-06-05, 07:40:06,VALID,918.492,VALID,0.0,VALID,87.698,VALID,250.738,VALID,22.119,VALID,16.0,VALID,0.714,
2017-06-05, 07:41:06,VALID,918.511,VALID,0.0,VALID,87.74,VALID,265.429,VALID,22.133,VALID,30.0,VALID,0.49,
2017-06-05, 07:42:06,VALID,918.558,VALID,0.0,VALID,88.089,VALID,270.575,VALID,22.181,VALID,24.0,VALID,0.495,
2017-06-05, 07:43:06,VALID,918.581,VALID,0.0,VALID,86.822,VALID,274.55,VALID,22.222,VALID,46.0,VALID,0.559,
2017-06-05, 07:44:06,VALID,918.602,VALID,0.0,VALID,86.892,VALID,281.632,VALID,22.275,VALID,38.0,VALID,0.855,
2017-06-05, 07:45:06,VALID,918.604,VALID,0.0,VALID,86.137,VALID,292.556,VALID,22.344,VALID,19.0,VALID,0.661,
2017-06-05, 07:46:06,VALID,918.62,VALID,0.0,VALID,86.393,VALID,301.725,VALID,22.41,VALID,355.0,VALID,0.569,
2017-06-05, 07:47:06,VALID,918.654,VALID,0.0,VALID,85.838,VALID,309.376,VALID,22.544,VALID,355.0,VALID,0.81,
2017-06-05, 07:48:06,VALID,918.66,VALID,0.0,VALID,85.743,VALID,314.901,VALID,22.619,VALID,16.0,VALID,0.48,
2017-06-05, 07:49:06,VALID,918.671,VALID,0.0,VALID,86.573,VALID,320.283,VALID,22.822,VALID,310.0,VALID,0.423,
2017-06-05, 07:50:07,VALID,918.65,VALID,0.0,VALID,84.184,VALID,323.501,VALID,22.6,VALID,282.0,VALID,0.755,
2017-06-05, 07:51:07,VALID,918.655,VALID,0.0,VALID,85.85,VALID,322.966,VALID,22.178,VALID,286.0,VALID,0.557,
2017-06-05, 07:52:06,VALID,918.653,VALID,0.0,VALID,87.306,VALID,318.622,VALID,21.945,VALID,316.0,VALID,0.429,
2017-06-05, 07:53:07,VALID,918.67,VALID,0.0,VALID,88.865,VALID,323.786,VALID,21.981,VALID,344.0,VALID,0.666,
2017-06-05, 07:54:07,VALID,918.695,VALID,0.0,VALID,87.76,VALID,330.317,VALID,22.146,VALID,325.0,VALID,0.467,
2017-06-05, 07:55:07,VALID,918.733,VALID,0.0,VALID,87.651,VALID,336.948,VALID,22.286,VALID,324.0,VALID,0.58,
2017-06-05, 07:56:07,VALID,918.748,VALID,0.0,VALID,87.578,VALID,334.068,VALID,22.453,VALID,17.0,VALID,0.351,
2017-06-05, 07:57:07,VALID,918.78,VALID,0.0,VALID,87.053,VALID,340.456,VALID,22.762,VALID,343.0,VALID,0.53,
2017-06-05, 07:58:07,VALID,918.813,VALID,0.0,VALID,85.195,VALID,342.274,VALID,22.977,VALID,319.0,VALID,0.349,
2017-06-05, 07:59:07,VALID,918.839,VALID,0.0,VALID,83.91,VALID,353.336,VALID,22.894,VALID,280.0,VALID,0.616,
2017-06-05, 08:00:07,VALID,918.84,VALID,0.0,VALID,84.265,VALID,360.503,VALID,22.566,VALID,282.0,VALID,0.701,
2017-06-05, 08:01:07,VALID,918.838,VALID,0.0,VALID,85.836,VALID,371.001,VALID,22.314,VALID,292.0,VALID,0.684,
2017-06-05, 08:02:07,VALID,918.837,VALID,0.0,VALID,86.741,VALID,379.644,VALID,22.214,VALID,324.0,VALID,1.028,
2017-06-05, 08:03:07,VALID,918.834,VALID,0.0,VALID,86.705,VALID,387.873,VALID,22.207,VALID,333.0,VALID,0.755,
2017-06-05, 08:04:07,VALID,918.828,VALID,0.0,VALID,87.101,VALID,393.067,VALID,22.332,VALID,353.0,VALID,0.834,
2017-06-05, 08:05:07,VALID,918.829,VALID,0.0,VALID,86.668,VALID,399.728,VALID,22.534,VALID,343.0,VALID,1.113,
2017-06-05, 08:06:07,VALID,918.826,VALID,0.0,VALID,86.084,VALID,403.5,VALID,22.745,VALID,346.0,VALID,1.013,
2017-06-05, 08:07:07,VALID,918.822,VALID,0.0,VALID,84.745,VALID,404.509,VALID,22.848,VALID,329.0,VALID,1.133,
2017-06-05, 08:08:07,VALID,918.823,VALID,0.0,VALID,85.277,VALID,400.925,VALID,22.839,VALID,323.0,VALID,0.365,
2017-06-05, 08:09:07,VALID,918.842,VALID,0.0,VALID,84.449,VALID,402.992,VALID,22.962,VALID,287.0,VALID,0.609,
2017-06-05, 08:10:07,VALID,918.87,VALID,0.0,VALID,84.032,VALID,408.838,VALID,22.835,VALID,264.0,VALID,0.506,
2017-06-05, 08:11:07,VALID,918.895,VALID,0.0,VALID,84.994,VALID,432.72,VALID,22.712,VALID,287.0,VALID,0.451,
2017-06-05, 08:12:07,VALID,918.918,VALID,0.0,VALID,84.521,VALID,421.306,VALID,22.584,VALID,302.0,VALID,0.629,
2017-06-05, 08:13:07,VALID,918.925,VALID,0.0,VALID,85.897,VALID,446.093,VALID,22.538,VALID,338.0,VALID,0.574,
2017-06-05, 08:14:07,VALID,918.929,VALID,0.0,VALID,86.07,VALID,425.568,VALID,22.736,VALID,330.0,VALID,0.84,
2017-06-05, 08:15:07,VALID,918.915,VALID,0.0,VALID,85.853,VALID,398.813,VALID,22.932,VALID,344.0,VALID,1.036,
2017-06-05, 08:16:07,VALID,918.911,VALID,0.0,VALID,85.23,VALID,417.821,VALID,23.113,VALID,340.0,VALID,1.002,
2017-06-05, 08:17:07,VALID,918.899,VALID,0.0,VALID,84.309,VALID,424.826,VALID,23.152,VALID,342.0,VALID,0.7,
2017-06-05, 08:18:07,VALID,918.909,VALID,0.0,VALID,85.221,VALID,425.352,VALID,23.303,VALID,23.0,VALID,0.653,
2017-06-05, 08:19:07,VALID,918.923,VALID,0.0,VALID,83.573,VALID,430.827,VALID,23.498,VALID,316.0,VALID,0.543,
2017-06-05, 08:20:07,VALID,918.935,VALID,0.0,VALID,82.801,VALID,431.27,VALID,23.575,VALID,271.0,VALID,0.203,
2017-06-05, 08:21:07,VALID,918.957,VALID,0.0,VALID,82.201,VALID,403.251,VALID,23.605,VALID,274.0,VALID,0.309,
2017-06-05, 08:22:07,VALID,918.98,VALID,0.0,VALID,81.396,VALID,372.811,VALID,23.471,VALID,284.0,VALID,0.853,
2017-06-05, 08:23:07,VALID,919.017,VALID,0.0,VALID,82.159,VALID,394.637,VALID,23.219,VALID,297.0,VALID,0.729,
2017-06-05, 08:24:07,VALID,919.044,VALID,0.0,VALID,82.689,VALID,385.413,VALID,23.025,VALID,282.0,VALID,0.402,
2017-06-05, 08:25:07,VALID,919.027,VALID,0.0,VALID,83.449,VALID,362.714,VALID,23.039,VALID,43.0,VALID,0.043,
2017-06-05, 08:26:07,VALID,919.033,VALID,0.0,VALID,82.503,VALID,393.738,VALID,23.219,VALID,354.0,VALID,0.135,
2017-06-05, 08:27:07,VALID,919.038,VALID,0.0,VALID,81.668,VALID,387.347,VALID,23.323,VALID,311.0,VALID,0.708,
2017-06-05, 08:28:07,VALID,919.051,VALID,0.0,VALID,81.785,VALID,395.23,VALID,23.392,VALID,335.0,VALID,0.742,
2017-06-05, 08:29:07,VALID,919.06,VALID,0.0,VALID,80.805,VALID,420.626,VALID,23.442,VALID,317.0,VALID,0.588,
2017-06-05, 08:30:07,VALID,919.07,VALID,0.0,VALID,82.045,VALID,376.082,VALID,23.43,VALID,329.0,VALID,0.461,
2017-06-05, 08:31:07,VALID,919.064,VALID,0.0,VALID,81.072,VALID,371.954,VALID,23.511,VALID,330.0,VALID,0.551,
2017-06-05, 08:32:07,VALID,919.055,VALID,0.0,VALID,81.919,VALID,417.607,VALID,23.567,VALID,6.0,VALID,0.527,
2017-06-05, 08:33:07,VALID,919.043,VALID,0.0,VALID,80.903,VALID,453.714,VALID,23.716,VALID,13.0,VALID,1.219,
2017-06-05, 08:34:07,VALID,919.062,VALID,0.0,VALID,80.832,VALID,450.535,VALID,23.908,VALID,357.0,VALID,0.458,
2017-06-05, 08:35:07,VALID,919.083,VALID,0.0,VALID,78.2,VALID,447.087,VALID,24.012,VALID,302.0,VALID,0.627,
2017-06-05, 08:36:07,VALID,919.098,VALID,0.0,VALID,78.123,VALID,509.598,VALID,23.848,VALID,314.0,VALID,0.453,
2017-06-05, 08:37:07,VALID,919.086,VALID,0.0,VALID,78.854,VALID,528.502,VALID,23.866,VALID,343.0,VALID,0.217,
2017-06-05, 08:38:07,VALID,919.073,VALID,0.0,VALID,79.216,VALID,535.026,VALID,24.125,VALID,14.0,VALID,0.898,
2017-06-05, 08:39:07,VALID,919.037,VALID,0.0,VALID,78.717,VALID,537.714,VALID,24.392,VALID,27.0,VALID,1.004,
2017-06-05, 08:40:07,VALID,919.0,VALID,0.0,VALID,76.873,VALID,539.586,VALID,24.668,VALID,320.0,VALID,0.281,
2017-06-05, 08:41:07,VALID,918.973,VALID,0.0,VALID,76.054,VALID,541.129,VALID,24.954,VALID,6.0,VALID,0.44,
2017-06-05, 08:42:07,VALID,918.978,VALID,0.0,VALID,75.258,VALID,530.924,VALID,25.239,VALID,15.0,VALID,0.697,
2017-06-05, 08:43:07,VALID,919.002,VALID,0.0,VALID,74.137,VALID,511.078,VALID,25.357,VALID,28.0,VALID,0.943,
2017-06-05, 08:44:07,VALID,919.046,VALID,0.0,VALID,73.892,VALID,548.293,VALID,25.448,VALID,278.0,VALID,0.139,
2017-06-05, 08:45:07,VALID,919.074,VALID,0.0,VALID,72.041,VALID,541.898,VALID,25.519,VALID,296.0,VALID,0.395,
2017-06-05, 08:46:07,VALID,919.063,VALID,0.0,VALID,71.991,VALID,530.137,VALID,25.423,VALID,7.0,VALID,0.579,
2017-06-05, 08:47:07,VALID,919.066,VALID,0.0,VALID,72.642,VALID,544.766,VALID,25.492,VALID,357.0,VALID,0.869,
2017-06-05, 08:48:07,VALID,919.08,VALID,0.0,VALID,72.854,VALID,553.451,VALID,25.611,VALID,19.0,VALID,0.942,
2017-06-05, 08:49:07,VALID,919.065,VALID,0.0,VALID,71.354,VALID,557.887,VALID,25.673,VALID,19.0,VALID,1.594,
2017-06-05, 08:50:07,VALID,919.057,VALID,0.0,VALID,70.991,VALID,558.447,VALID,25.273,VALID,44.0,VALID,1.707,
2017-06-05, 08:51:07,VALID,919.084,VALID,0.0,VALID,73.183,VALID,539.533,VALID,25.148,VALID,6.0,VALID,0.798,
2017-06-05, 08:52:07,VALID,919.081,VALID,0.0,VALID,71.997,VALID,556.076,VALID,25.169,VALID,318.0,VALID,0.379,
2017-06-05, 08:53:07,VALID,919.079,VALID,0.0,VALID,73.686,VALID,563.484,VALID,24.985,VALID,321.0,VALID,0.555,
2017-06-05, 08:54:07,VALID,919.055,VALID,0.0,VALID,74.872,VALID,574.383,VALID,24.865,VALID,348.0,VALID,0.276,
2017-06-05, 08:55:07,VALID,919.046,VALID,0.0,VALID,74.387,VALID,574.612,VALID,24.844,VALID,247.0,VALID,0.848,
2017-06-05, 08:56:07,VALID,919.033,VALID,0.0,VALID,75.476,VALID,531.976,VALID,24.551,VALID,277.0,VALID,0.568,
2017-06-05, 08:57:07,VALID,919.032,VALID,0.0,VALID,76.318,VALID,519.951,VALID,24.415,VALID,321.0,VALID,0.462,
2017-06-05, 08:58:07,VALID,919.028,VALID,0.0,VALID,76.476,VALID,484.586,VALID,24.385,VALID,324.0,VALID,0.388,
2017-06-05, 08:59:07,VALID,919.034,VALID,0.0,VALID,76.85,VALID,427.501,VALID,24.517,VALID,300.0,VALID,0.11,
2017-06-05, 09:00:07,VALID,919.053,VALID,0.0,VALID,75.533,VALID,457.894,VALID,24.755,VALID,277.0,VALID,0.291,
2017-06-05, 09:01:07,VALID,919.054,VALID,0.0,VALID,74.249,VALID,491.621,VALID,24.737,VALID,270.0,VALID,0.633,
2017-06-05, 09:02:07,VALID,919.026,VALID,0.0,VALID,74.248,VALID,497.797,VALID,24.618,VALID,232.0,VALID,0.134,
2017-06-05, 09:03:07,VALID,919.001,VALID,0.0,VALID,74.419,VALID,471.719,VALID,24.635,VALID,302.0,VALID,0.781,
2017-06-05, 09:04:07,VALID,919.001,VALID,0.0,VALID,75.505,VALID,486.74,VALID,24.38,VALID,303.0,VALID,0.445,
2017-06-05, 09:05:07,VALID,919.019,VALID,0.0,VALID,77.045,VALID,494.222,VALID,24.323,VALID,303.0,VALID,0.299,
2017-06-05, 09:06:07,VALID,919.043,VALID,0.0,VALID,76.001,VALID,476.156,VALID,24.435,VALID,296.0,VALID,0.539,
2017-06-05, 09:07:07,VALID,919.058,VALID,0.0,VALID,76.043,VALID,477.13,VALID,24.497,VALID,267.0,VALID,0.347,
2017-06-05, 09:08:07,VALID,919.045,VALID,0.0,VALID,75.077,VALID,537.052,VALID,24.543,VALID,245.0,VALID,0.517,
2017-06-05, 09:09:07,VALID,919.019,VALID,0.0,VALID,75.869,VALID,589.856,VALID,24.492,VALID,272.0,VALID,0.204,
